KB4KY Weather Reports


time (UTC)temp
C
wind
direction
speed
KPH
gust
KPH
rain 1hr
cm
rain 24hr
cm
rain mn
cm
humidity
%
barometer
mb
20260504014010 12 192 0.0 0.0 0.00 0.00 0.00 63 1013.3
20260504013509 12 192 0.0 3.2 0.00 0.00 0.00 61 1013.1
20260504013009 13 184 0.0 6.4 0.00 0.00 0.00 61 1013.0
20260504012507 13 212 0.0 3.2 0.00 0.00 0.00 60 1013.1
20260504012006 13 220 0.0 0.0 0.00 0.00 0.00 60 1013.1
20260504011510 13 220 0.0 0.0 0.00 0.00 0.00 58 1010.1
20260504011506 13 220 0.0 0.0 0.00 0.00 0.00 58 1013.1
20260504011007 13 220 0.0 0.0 0.00 0.00 0.00 57 1013.1
20260504010507 14 220 0.0 0.0 0.00 0.00 0.00 57 1013.0
20260504010007 14 220 0.0 0.0 0.00 0.00 0.00 56 1013.0
20260504005505 14 220 0.0 0.0 0.00 0.00 0.00 56 1013.0
20260504005005 15 220 0.0 0.0 0.00 0.00 0.00 55 1012.9
20260504004504 15 220 0.0 0.0 0.00 0.00 0.00 56 1012.9
20260504004004 15 220 0.0 0.0 0.00 0.00 0.00 54 1012.8
20260504003504 15 220 0.0 0.0 0.00 0.00 0.00 53 1012.8
20260504003005 15 220 0.0 0.0 0.00 0.00 0.00 53 1012.8
20260504002503 15 220 0.0 6.4 0.00 0.00 0.00 52 1012.8
20260504002003 16 212 0.0 1.6 0.00 0.00 0.00 52 1012.7
20260504001505 16 210 0.0 0.0 0.00 0.00 0.00 51 1012.7
20260504001002 16 210 0.0 4.8 0.00 0.00 0.00 50 1012.7
20260503235702 16 201 0.0 6.4 0.00 0.00 0.00 49 1012.7
20260503235501 16 212 0.0 3.2 0.00 0.00 0.00 49 1012.7
20260503235001 16 201 0.0 6.4 0.00 0.00 0.00 49 1012.7
20260503234501 16 208 0.0 6.4 0.00 0.00 0.00 47 1012.6
20260503234002 16 191 0.0 14.5 0.00 0.00 0.00 46 1012.7
20260503233502 17 170 0.0 3.2 0.00 0.00 0.00 49 1012.8
20260503233451 17 163 1.6 6.4 0.00 0.00 0.00 48 1012.8
20260503233002 17 163 1.6 6.4 0.00 0.00 0.00 48 1012.8
20260503232911 19 257 0.0 6.4 0.00 0.00 0.00 42 1013.5
20260503232500 17 192 0.0 1.6 0.00 0.00 0.00 47 1013.0
20260503231501 18 223 0.0 1.6 0.00 0.00 0.00 46 1013.2
20260503230959 18 195 0.0 3.2 0.00 0.00 0.00 44 1013.2
20260503230607 18 223 1.6 9.7 0.00 0.00 0.00 43 1013.2
20260503230500 18 223 1.6 9.7 0.00 0.00 0.00 43 1013.2
20260503225958 18 246 0.0 8.0 0.00 0.00 0.00 42 1013.3
20260503225737 19 257 0.0 6.4 0.00 0.00 0.00 42 1013.5
20260503225458 19 257 0.0 6.4 0.00 0.00 0.00 42 1013.5
20260503225036 19 239 1.6 16.1 0.00 0.00 0.00 41 1013.5
20260503224958 19 160 1.6 6.4 0.00 0.00 0.00 41 1013.6
20260503224459 19 229 4.8 11.3 0.00 0.00 0.00 43 1013.6
20260503223958 19 239 1.6 16.1 0.00 0.00 0.00 41 1013.5
20260503223545 19 206 0.0 8.0 0.00 0.00 0.00 43 1013.5
20260503223458 19 206 0.0 8.0 0.00 0.00 0.00 43 1013.5
20260503223035 20 265 3.2 8.0 0.00 0.00 0.00 42 1013.4
20260503222959 20 265 3.2 8.0 0.00 0.00 0.00 42 1013.4
20260503222744 20 158 1.6 4.8 0.00 0.00 0.00 40 1013.5
20260503222458 20 158 1.6 4.8 0.00 0.00 0.00 40 1013.5
20260503221959 20 198 0.0 8.0 0.00 0.00 0.00 38 1013.7
20260503221456 20 275 0.0 8.0 0.00 0.00 0.00 41 1013.9
20260503220957 20 327 0.0 6.4 0.00 0.00 0.00 40 1013.9
20260503220455 20 253 6.4 8.0 0.00 0.00 0.00 41 1014.1
20260503220249 20 271 1.6 9.7 0.00 0.00 0.00 42 1014.4
20260503215956 20 258 1.6 12.9 0.00 0.00 0.00 39 1014.2
20260503215456 20 210 6.4 9.7 0.00 0.00 0.00 39 1014.2
20260503214957 20 210 6.4 9.7 0.00 0.00 0.00 39 1014.2
20260503214454 20 271 1.6 9.7 0.00 0.00 0.00 42 1014.4
20260503213907 20 219 3.2 11.3 0.00 0.00 0.00 42 1013.8
20260503213453 20 104 0.0 16.1 0.00 0.00 0.00 42 1014.1
20260503212953 20 219 3.2 11.3 0.00 0.00 0.00 42 1013.8
20260503212453 20 232 3.2 9.7 0.00 0.00 0.00 43 1014.1
20260503211954 20 282 4.8 19.3 0.00 0.00 0.00 40 1014.1
20260503211452 20 253 3.2 8.0 0.00 0.00 0.00 39 1014.4
20260503211136 20 223 3.2 11.3 0.00 0.00 0.00 41 1014.6
20260503210453 20 174 4.8 12.9 0.00 0.00 0.00 40 1014.5
20260503205954 20 223 3.2 11.3 0.00 0.00 0.00 41 1014.6
20260503205905 20 251 8.0 12.9 0.00 0.00 0.00 41 1014.5
20260503205452 20 251 8.0 12.9 0.00 0.00 0.00 41 1014.5
20260503204952 20 213 3.2 16.1 0.00 0.00 0.00 36 1014.4
20260503204806 20 215 3.2 11.3 0.00 0.00 0.00 38 1014.6
20260503204450 20 215 3.2 11.3 0.00 0.00 0.00 38 1014.6
20260503203950 19 298 0.0 12.9 0.00 0.00 0.00 41 1014.7
20260503203737 18 187 11.3 14.5 0.00 0.00 0.00 43 1014.9
20260503203450 18 97 3.2 14.5 0.00 0.00 0.00 41 1014.9
20260503202950 18 187 11.3 14.5 0.00 0.00 0.00 43 1014.9
20260503202449 19 182 3.2 20.9 0.00 0.00 0.00 41 1014.9
20260503201949 20 230 4.8 19.3 0.00 0.00 0.00 39 1015.1
20260503201449 20 277 1.6 8.0 0.00 0.00 0.00 40 1015.5
20260503200951 20 227 3.2 8.0 0.00 0.00 0.00 40 1015.6
20260503200448 19 206 3.2 11.3 0.00 0.00 0.00 38 1015.8
20260503195949 19 329 0.0 11.3 0.00 0.00 0.00 40 1016.0
20260503195448 19 189 0.0 9.7 0.00 0.00 0.00 41 1016.3
20260503194947 19 216 4.8 8.0 0.00 0.00 0.00 40 1016.4
20260503194447 18 260 0.0 8.0 0.00 0.00 0.00 42 1016.4
20260503193947 18 219 3.2 11.3 0.00 0.00 0.00 45 1016.5
20260503193448 18 195 4.8 12.9 0.00 0.00 0.00 40 1016.7
20260503192946 18 229 8.0 17.7 0.00 0.00 0.00 39 1016.8
20260503192447 18 191 1.6 16.1 0.00 0.00 0.00 39 1016.9
20260503191946 18 265 0.0 9.7 0.00 0.00 0.00 41 1017.0
20260503191445 18 272 3.2 12.9 0.00 0.00 0.00 44 1017.0
20260503190945 17 213 12.9 17.7 0.00 0.00 0.00 40 1017.1
20260503190445 18 219 3.2 12.9 0.00 0.00 0.00 42 1017.3
20260503185946 18 237 4.8 11.3 0.00 0.00 0.00 39 1017.3
20260503185444 18 205 1.6 11.3 0.00 0.00 0.00 42 1017.4
20260503184947 17 240 1.6 6.4 0.00 0.00 0.00 43 1017.5
20260503184446 17 230 0.0 22.5 0.00 0.00 0.00 45 1017.5
20260503183945 17 244 1.6 14.5 0.00 0.00 0.00 37 1017.6
20260503183443 17 232 1.6 8.0 0.00 0.00 0.00 44 1017.9
20260503182943 17 220 4.8 14.5 0.00 0.00 0.00 37 1017.8
20260503182442 17 232 4.8 11.3 0.00 0.00 0.00 41 1017.9
20260503181943 17 205 9.7 24.1 0.00 0.00 0.00 40 1017.9
20260503181444 17 208 0.0 11.3 0.00 0.00 0.00 38 1018.0
20260503180943 17 246 8.0 14.5 0.00 0.00 0.00 42 1018.0
20260503180443 17 241 3.2 9.7 0.00 0.00 0.00 45 1018.2
20260503175941 16 264 4.8 20.9 0.00 0.00 0.00 44 1018.1
20260503175442 16 222 6.4 16.1 0.00 0.00 0.00 38 1018.3
20260503174940 16 164 9.7 12.9 0.00 0.00 0.00 39 1018.5
20260503174442 16 277 4.8 8.0 0.00 0.00 0.00 43 1018.7
20260503173941 15 247 3.2 17.7 0.00 0.00 0.00 48 1018.9
20260503173442 15 170 11.3 14.5 0.00 0.00 0.00 42 1019.0
20260503172941 16 180 8.0 16.1 0.00 0.00 0.00 39 1019.0
20260503172440 16 225 0.0 12.9 0.00 0.00 0.00 37 1019.2
20260503171938 16 209 4.8 14.5 0.00 0.00 0.00 48 1019.2
20260503171603 16 216 3.2 11.3 0.00 0.00 0.00 42 1019.2
20260503171438 16 216 3.2 11.3 0.00 0.00 0.00 42 1019.2
20260503171027 15 205 14.5 17.7 0.00 0.00 0.00 43 1019.4
20260503170938 16 243 3.2 17.7 0.00 0.00 0.00 47 1019.4
20260503170438 15 205 14.5 17.7 0.00 0.00 0.00 43 1019.4
20260503150931 15 174 0.0 8.0 0.00 0.00 0.00 52 1021.2
20260503150432 14 127 8.0 14.5 0.00 0.00 0.00 49 1021.3
20260503130929 10 272 0.0 6.4 0.00 0.00 0.00 69 1022.0
20260503130840 10 210 0.0 8.0 0.00 0.00 0.00 72 1022.1
20260503130425 10 203 1.6 4.8 0.00 0.00 0.00 72 1022.1
20260503110540 2 246 0.0 0.0 0.00 0.00 0.00 96 1021.5
20260503090411 3 246 0.0 0.0 0.00 0.00 0.00 94 1021.0
20260503081415 3 255 1.6 3.2 0.00 0.00 0.00 96 1020.7
20260503080910 3 257 1.6 1.6 0.00 0.00 0.00 96 1020.7
20260503080426 3 253 0.0 1.6 0.00 0.00 0.00 96 1020.6
20260503080408 3 255 1.6 1.6 0.00 0.00 0.00 96 1020.6
20260503072908 3 53 0.0 0.0 0.00 0.00 0.00 94 1020.3
20260503072757 3 53 0.0 0.0 0.00 0.00 0.00 94 1020.2
20260503072406 3 53 0.0 0.0 0.00 0.00 0.00 94 1020.2
20260503072044 3 53 0.0 0.0 0.00 0.00 0.00 93 1020.2
20260503071905 3 53 0.0 0.0 0.00 0.00 0.00 93 1020.2
20260503071406 3 53 0.0 0.0 0.00 0.00 0.00 93 1020.1
20260503071004 3 53 0.0 0.0 0.00 0.00 0.00 92 1020.1
20260503070909 3 53 0.0 0.0 0.00 0.00 0.00 92 1020.1
20260503070554 4 53 0.0 0.0 0.00 0.00 0.00 92 1020.2
20260503070403 4 53 0.0 0.0 0.00 0.00 0.00 92 1020.2
20260503070142 4 53 0.0 0.0 0.00 0.00 0.00 92 1020.1
20260503054902 6 53 0.0 0.0 0.00 0.00 0.00 85 1020.1
20260503054820 6 53 0.0 0.0 0.00 0.00 0.00 84 1020.1
20260503054400 6 53 0.0 0.0 0.00 0.00 0.00 85 1020.1
20260503054031 6 53 0.0 0.0 0.00 0.00 0.00 84 1020.1
20260503053859 6 53 0.0 0.0 0.00 0.00 0.00 84 1020.1
20260503053502 6 53 0.0 0.0 0.00 0.00 0.00 83 1020.2
20260503053404 6 53 0.0 0.0 0.00 0.00 0.00 82 1020.1
20260503053358 6 53 0.0 0.0 0.00 0.00 0.00 83 1020.2
20260503052901 6 53 0.0 0.0 0.00 0.00 0.00 82 1020.1
20260503052358 6 53 0.0 0.0 0.00 0.00 0.00 82 1020.1
20260503051859 7 53 0.0 0.0 0.00 0.00 0.00 80 1020.1
20260503051357 7 53 0.0 0.0 0.00 0.00 0.00 80 1020.1
20260503051158 7 53 0.0 0.0 0.00 0.00 0.00 79 1020.0
20260503050900 7 53 0.0 0.0 0.00 0.00 0.00 79 1020.0
20260503050607 7 53 0.0 0.0 0.00 0.00 0.00 79 1020.0
20260503050357 7 53 0.0 0.0 0.00 0.00 0.00 79 1020.0
20260503045859 7 32 0.0 0.0 0.00 0.00 0.00 79 1020.0
20260503045357 7 32 0.0 0.0 0.00 0.00 0.00 79 1019.9
20260503045023 7 32 0.0 3.2 0.00 0.00 0.00 79 1019.9
20260503044900 7 32 0.0 3.2 0.00 0.00 0.00 79 1019.9
20260503044551 7 5 1.6 3.2 0.00 0.00 0.00 77 1019.8
20260503044355 7 5 1.6 3.2 0.00 0.00 0.00 77 1019.8
20260503043855 7 14 0.0 3.2 0.00 0.00 0.00 77 1019.8
20260503043814 8 8 1.6 4.8 0.00 0.00 0.00 77 1019.8
20260503043354 8 8 1.6 4.8 0.00 0.00 0.00 77 1019.8
20260503042948 8 12 0.0 3.2 0.00 0.00 0.00 77 1019.8
20260503042854 8 12 0.0 3.2 0.00 0.00 0.00 77 1019.8
20260503042356 8 16 0.0 3.2 0.00 0.00 0.00 76 1019.7
20260503041855 8 23 1.6 3.2 0.00 0.00 0.00 76 1019.6
20260503041353 8 2 1.6 3.2 0.00 0.00 0.00 76 1019.6
20260503040859 8 18 1.6 4.8 0.00 0.00 0.00 75 1019.7
20260503040354 8 354 1.6 4.8 0.00 0.00 0.00 75 1019.6
20260503035923 8 7 3.2 4.8 0.00 0.00 0.00 74 1019.5
20260503035852 8 7 3.2 4.8 0.00 0.00 0.00 74 1019.5
20260503035427 8 344 1.6 4.8 0.00 0.00 0.00 75 1019.5
20260503035353 8 344 1.6 4.8 0.00 0.00 0.00 75 1019.5
20260503035025 9 22 0.0 8.0 0.00 0.00 0.00 76 1019.5
20260503034853 9 18 4.8 8.0 0.00 0.00 0.00 74 1019.5
20260503034351 9 30 4.8 6.4 0.00 0.00 0.00 75 1019.5
20260503033852 9 22 0.0 8.0 0.00 0.00 0.00 76 1019.5
20260503033500 9 12 3.2 8.0 0.00 0.00 0.00 77 1019.4
20260503033351 9 12 3.2 8.0 0.00 0.00 0.00 77 1019.4
20260503033031 8 341 0.0 8.0 0.00 0.00 0.00 85 1019.2
20260503032854 8 14 1.6 8.0 0.00 0.00 0.00 78 1019.3
20260503032421 8 36 1.6 11.3 0.00 0.00 0.00 83 1019.3
20260503032352 8 26 3.2 6.4 0.00 0.00 0.00 80 1019.3
20260503031852 8 36 1.6 11.3 0.00 0.00 0.00 83 1019.3
20260503031350 8 341 0.0 8.0 0.00 0.00 0.00 85 1019.2
20260503030939 8 312 0.0 0.0 0.00 0.00 0.00 89 1019.2
20260503030857 8 312 0.0 0.0 0.00 0.00 0.00 89 1019.2
20260503030638 8 312 0.0 0.0 0.00 0.00 0.00 89 1019.2
20260503030351 8 312 0.0 0.0 0.00 0.00 0.00 89 1019.2
20260503025931 8 312 0.0 0.0 0.00 0.00 0.00 89 1019.1
20260503025849 8 312 0.0 0.0 0.00 0.00 0.00 89 1019.1
20260503025448 8 312 0.0 0.0 0.00 0.00 0.00 87 1019.0
20260503025349 8 312 0.0 0.0 0.00 0.00 0.00 87 1019.0
20260503025027 8 312 0.0 0.0 0.00 0.00 0.00 87 1019.0
20260503024848 8 312 0.0 0.0 0.00 0.00 0.00 87 1019.0
20260503024349 8 312 0.0 0.0 0.00 0.00 0.00 86 1018.9
20260503023949 8 312 0.0 0.0 0.00 0.00 0.00 88 1018.6
20260503023850 8 312 0.0 0.0 0.00 0.00 0.00 88 1018.9
20260503023349 8 312 0.0 0.0 0.00 0.00 0.00 89 1018.7
20260503023250 8 312 0.0 0.0 0.00 0.00 0.00 88 1018.6
20260503022849 8 312 0.0 0.0 0.00 0.00 0.00 88 1018.6
20260503022348 8 312 0.0 0.0 0.00 0.00 0.00 87 1018.6
20260503022143 8 312 0.0 0.0 0.00 0.00 0.00 86 1018.6
20260503021848 8 312 0.0 0.0 0.00 0.00 0.00 86 1018.6
20260503021346 8 312 0.0 0.0 0.00 0.00 0.00 85 1018.5
20260503020419 8 312 0.0 0.0 0.00 0.00 0.00 84 1018.5
20260503020414 9 312 0.0 0.0 0.00 0.00 0.00 80 1018.1
20260503020347 8 312 0.0 0.0 0.00 0.00 0.00 84 1018.5
20260503015847 8 312 0.0 0.0 0.00 0.00 0.00 83 1018.3
20260503015347 8 312 0.0 0.0 0.00 0.00 0.00 83 1018.3
20260503015325 9 312 0.0 0.0 0.00 0.00 0.00 80 1018.1
20260503014846 9 312 0.0 0.0 0.00 0.00 0.00 81 1018.2
20260503014347 9 312 0.0 0.0 0.00 0.00 0.00 80 1018.1